Terminal Aerodrome Forecast
Issued by NWS

Home | Current Version | Previous Version | Text Only | Print | Product List | Glossary On
Versions: 1 2 3 4 5 6 7 8 9 10 11 12 13 14 15 16
000
FTUS43 KGRR 170540
TAFBTL
TAF
KBTL 170540Z 1706/1806 12008KT 3SM RA BR OVC004
     FM171200 20006KT 1SM -RA BR OVC002
     FM171800 26010KT 3SM BR OVC005
     FM172200 26010KT 2SM -RA BR OVC005
     FM180500 26009KT 2SM BR OVC005=

USA.gov is the U.S. government's official web portal to all federal, state and local government web resources and services.